TimeCDT,TemperatureF,Dew PointF,Humidity,Sea Level PressureIn,VisibilityMPH,Wind Direction,Wind SpeedMPH,Gust SpeedMPH,PrecipitationIn,Events,Conditions,WindDirDegrees,DateUTC
12:56 AM,46.0,39.9,79,29.87,10.0,Calm,Calm,-,N/A,,Clear,0,2013-05-05 05:56:00
1:56 AM,45.0,39.9,82,29.86,10.0,Calm,Calm,-,N/A,,Clear,0,2013-05-05 06:56:00
2:56 AM,44.1,39.0,82,29.86,10.0,West,3.5,-,N/A,,Clear,280,2013-05-05 07:56:00
3:56 AM,45.0,39.0,80,29.86,10.0,Calm,Calm,-,N/A,,Clear,0,2013-05-05 08:56:00
4:56 AM,44.1,39.0,82,29.85,10.0,Calm,Calm,-,N/A,,Clear,0,2013-05-05 09:56:00
5:56 AM,46.0,39.9,79,29.86,10.0,Calm,Calm,-,N/A,,Clear,0,2013-05-05 10:56:00
6:56 AM,50.0,44.1,80,29.85,10.0,Calm,Calm,-,N/A,,Scattered Clouds,0,2013-05-05 11:56:00
7:56 AM,59.0,48.9,69,29.85,10.0,South,5.8,-,N/A,,Clear,190,2013-05-05 12:56:00
8:56 AM,66.0,54.0,65,29.84,10.0,WSW,8.1,-,0.00,,Mostly Cloudy,240,2013-05-05 13:56:00
9:03 AM,66.2,53.6,64,29.87,10.0,WSW,10.4,-,N/A,,Scattered Clouds,240,2013-05-05 14:03:00
9:56 AM,70.0,53.1,55,29.82,10.0,WSW,15.0,25.3,N/A,,Mostly Cloudy,250,2013-05-05 14:56:00
10:56 AM,72.0,51.1,48,29.82,10.0,WSW,17.3,28.8,N/A,,Mostly Cloudy,250,2013-05-05 15:56:00
11:56 AM,73.0,41.0,31,29.81,10.0,West,23.0,32.2,N/A,,Partly Cloudy,260,2013-05-05 16:56:00
12:56 PM,73.0,39.9,30,29.80,10.0,West,17.3,32.2,N/A,,Clear,270,2013-05-05 17:56:00
1:56 PM,73.0,42.1,33,29.79,10.0,WNW,20.7,28.8,N/A,,Scattered Clouds,290,2013-05-05 18:56:00
2:56 PM,70.0,44.1,39,29.79,10.0,NW,16.1,26.5,N/A,,Scattered Clouds,310,2013-05-05 19:56:00
3:56 PM,66.9,41.0,39,29.81,10.0,NW,17.3,28.8,N/A,,Partly Cloudy,310,2013-05-05 20:56:00
4:56 PM,66.0,39.0,37,29.83,10.0,NNW,12.7,24.2,N/A,,Scattered Clouds,330,2013-05-05 21:56:00
5:56 PM,63.0,36.0,37,29.85,10.0,NW,13.8,21.9,N/A,,Scattered Clouds,310,2013-05-05 22:56:00
6:56 PM,60.1,37.0,42,29.87,10.0,NW,16.1,24.2,N/A,,Partly Cloudy,310,2013-05-05 23:56:00
7:56 PM,55.9,36.0,47,29.90,10.0,NW,9.2,-,N/A,,Partly Cloudy,310,2013-05-06 00:56:00
8:56 PM,54.0,37.0,53,29.92,10.0,NW,9.2,-,N/A,,Clear,310,2013-05-06 01:56:00
9:56 PM,50.0,39.0,66,29.94,10.0,WNW,6.9,-,N/A,,Clear,300,2013-05-06 02:56:00
10:56 PM,48.9,39.0,69,29.95,10.0,WNW,5.8,-,N/A,,Clear,290,2013-05-06 03:56:00
11:56 PM,48.0,39.9,74,29.95,10.0,WNW,8.1,-,N/A,,Clear,300,2013-05-06 04:56:00